GW0360 Weather Reports


Display with metric or nautical units.
time (UTC)temp
F
wind
direction
speed
MPH
gust
MPH
rain 1hr
in
rain 24hr
in
rain mn
in
humidity
%
barometer
mb
20260901062547 80 0 1.0 5.0 0.00 0.00 0.00 60 1015.3
20260901062040 80 239 1.0 5.0 0.00 0.00 0.00 60 1015.3
20260901061610 80 217 1.0 4.0 0.00 0.00 0.00 59 1015.4
20260901061044 80 211 1.0 5.0 0.00 0.00 0.00 59 1015.3
20260901060547 81 0 1.0 5.0 0.00 0.00 0.00 58 1015.3
20260901060101 81 219 2.0 5.0 0.00 0.00 0.00 58 1015.3
20260901055543 81 209 1.0 7.0 0.00 0.00 0.00 58 1015.3
20260901055043 81 215 2.0 7.0 0.00 0.00 0.00 57 1015.2
20260901054608 81 192 1.0 6.0 0.00 0.00 0.00 57 1015.1
20260901054040 82 0 1.0 5.0 0.00 0.00 0.00 57 1015.2
20260901053542 82 217 1.0 5.0 0.00 0.00 0.00 56 1015.2
20260901053110 82 0 2.0 7.0 0.00 0.00 0.00 56 1015.2
20260901052540 82 246 2.0 7.0 0.00 0.00 0.00 55 1015.2
20260901052043 83 239 1.0 9.0 0.00 0.00 0.00 55 1015.1
20260901051600 83 202 2.0 9.0 0.00 0.00 0.00 55 1015.2
20260901051043 83 229 1.0 4.0 0.00 0.00 0.00 55 1015.2
20260901050540 83 0 0.0 5.0 0.00 0.00 0.00 54 1015.1
20260901050059 83 205 1.0 5.0 0.00 0.00 0.00 54 1015.0
20260901045543 83 220 1.0 7.0 0.00 0.00 0.00 53 1015.1
20260901045040 84 202 1.0 7.0 0.00 0.00 0.00 53 1015.1
20260901044623 84 0 2.0 7.0 0.00 0.00 0.00 53 1015.0
20260901044040 84 193 1.0 7.0 0.00 0.00 0.00 53 1015.0
20260901043540 84 238 2.0 6.0 0.00 0.00 0.00 52 1015.0
20260901043102 84 254 2.0 5.0 0.00 0.00 0.00 52 1015.1
20260901042542 84 239 2.0 5.0 0.00 0.00 0.00 52 1015.0
20260901042043 84 0 2.0 5.0 0.00 0.00 0.00 52 1014.9
20260901041601 84 148 1.0 5.0 0.00 0.00 0.00 52 1015.0
20260901041042 84 0 1.0 6.0 0.00 0.00 0.00 52 1015.0
20260901040541 84 226 1.0 6.0 0.00 0.00 0.00 52 1014.9
20260901040105 84 163 2.0 6.0 0.00 0.00 0.00 52 1014.7
20260901035543 84 209 1.0 6.0 0.00 0.00 0.00 52 1014.7
20260901035043 84 0 1.0 5.0 0.00 0.00 0.00 53 1014.6
20260901034602 84 141 1.0 5.0 0.00 0.00 0.00 53 1014.6
20260901034041 84 228 1.0 5.0 0.00 0.00 0.00 54 1014.6
20260901033541 84 223 0.0 5.0 0.00 0.00 0.00 54 1014.6
20260901033059 84 211 0.0 6.0 0.00 0.00 0.00 54 1014.5
20260901032544 84 224 2.0 6.0 0.00 0.00 0.00 54 1014.5
20260901032041 85 188 1.0 6.0 0.00 0.00 0.00 54 1014.4
20260901031600 85 217 1.0 6.0 0.00 0.00 0.00 54 1014.5
20260901031042 85 209 0.0 5.0 0.00 0.00 0.00 54 1014.4
20260901030541 85 187 1.0 4.0 0.00 0.00 0.00 54 1014.3
20260901030056 85 197 1.0 4.0 0.00 0.00 0.00 55 1014.3
20260901025541 85 153 1.0 4.0 0.00 0.00 0.00 55 1014.3
20260901025044 85 0 0.0 0.0 0.00 0.00 0.00 55 1014.2
20260901024601 85 0 0.0 0.0 0.00 0.00 0.00 56 1014.3
20260901024042 85 0 0.0 0.0 0.00 0.00 0.00 56 1014.2
20260901023539 85 0 0.0 0.0 0.00 0.00 0.00 56 1014.1
20260901023102 85 0 0.0 1.0 0.00 0.00 0.00 57 1014.1
20260901022540 85 0 0.0 1.0 0.00 0.00 0.00 57 1014.1
20260901022040 85 0 0.0 0.0 0.00 0.00 0.00 57 1014.0
20260901021611 86 0 0.0 0.0 0.00 0.00 0.00 57 1013.9
20260901021041 86 0 0.0 0.0 0.00 0.00 0.00 57 1013.8
20260901020541 86 0 0.0 0.0 0.00 0.00 0.00 56 1013.9
20260901020057 86 0 0.0 0.0 0.00 0.00 0.00 56 1013.8
20260901015541 86 0 0.0 1.0 0.00 0.00 0.00 56 1013.8
20260901015041 86 0 0.0 1.0 0.00 0.00 0.00 56 1013.8
20260901014604 86 0 0.0 1.0 0.00 0.00 0.00 56 1013.7
20260901014041 87 0 0.0 0.0 0.00 0.00 0.00 56 1013.6
20260901013541 87 0 0.0 0.0 0.00 0.00 0.00 56 1013.6
20260901013119 87 0 0.0 0.0 0.00 0.00 0.00 55 1013.6
20260901012541 87 0 0.0 0.0 0.00 0.00 0.00 55 1013.6
20260901012045 88 0 0.0 0.0 0.00 0.00 0.00 55 1013.5
20260901011559 88 0 0.0 0.0 0.00 0.00 0.00 55 1013.6
20260901011040 88 0 0.0 0.0 0.00 0.00 0.00 54 1013.5
20260901010546 89 0 0.0 0.0 0.00 0.00 0.00 54 1013.5
20260901010106 89 0 0.0 0.0 0.00 0.00 0.00 53 1013.5
20260901005542 90 0 0.0 0.0 0.00 0.00 0.00 52 1013.5
20260901005040 90 0 0.0 1.0 0.00 0.00 0.00 52 1013.4
20260901004605 91 0 0.0 1.0 0.00 0.00 0.00 51 1013.4
20260901004045 91 0 0.0 1.0 0.00 0.00 0.00 50 1013.4
20260901003543 92 0 0.0 2.0 0.00 0.00 0.00 49 1013.3
20260901003102 92 0 0.0 2.0 0.00 0.00 0.00 49 1013.3
20260901002543 92 0 0.0 2.0 0.00 0.00 0.00 48 1013.2
20260901002040 93 0 0.0 3.0 0.00 0.00 0.00 47 1013.3
20260901001605 93 0 0.0 3.0 0.00 0.00 0.00 47 1013.1
20260901001047 94 0 0.0 3.0 0.00 0.00 0.00 46 1013.2
20260901000540 94 0 0.0 3.0 0.00 0.00 0.00 45 1013.3
20260831235540 95 0 0.0 3.0 0.00 0.00 0.00 44 1013.4
20260831235044 95 0 0.0 6.0 0.00 0.00 0.00 43 1013.3
20260831234602 96 0 0.0 6.0 0.00 0.00 0.00 43 1013.3
20260831234040 96 198 0.0 4.0 0.00 0.00 0.00 42 1013.3
20260831233543 96 226 0.0 5.0 0.00 0.00 0.00 42 1013.3
20260831233102 97 219 0.0 6.0 0.00 0.00 0.00 41 1013.2
20260831232545 97 180 1.0 6.0 0.00 0.00 0.00 41 1013.2
20260831232042 97 130 1.0 7.0 0.00 0.00 0.00 41 1013.2
20260831231623 98 0 1.0 8.0 0.00 0.00 0.00 41 1013.3
20260831231040 98 202 2.0 8.0 0.00 0.00 0.00 40 1013.1
20260831230540 98 207 1.0 9.0 0.00 0.00 0.00 41 1013.3
20260831230104 98 0 1.0 9.0 0.00 0.00 0.00 40 1013.3
20260831225543 98 211 3.0 9.0 0.00 0.00 0.00 39 1013.4
20260831225040 98 236 3.0 9.0 0.00 0.00 0.00 39 1013.4
20260831224637 98 175 2.0 10.0 0.00 0.00 0.00 39 1013.3
20260831224040 98 0 3.0 10.0 0.00 0.00 0.00 38 1013.3
20260831223543 99 213 0.0 10.0 0.00 0.00 0.00 39 1013.3
20260831223102 99 232 3.0 10.0 0.00 0.00 0.00 38 1013.5
20260831222540 99 205 1.0 11.0 0.00 0.00 0.00 38 1013.4
20260831222040 99 213 3.0 11.0 0.00 0.00 0.00 38 1013.4
20260831221614 99 198 2.0 8.0 0.00 0.00 0.00 38 1013.4
20260831221040 100 200 3.0 8.0 0.00 0.00 0.00 38 1013.4
20260831220544 100 225 2.0 9.0 0.00 0.00 0.00 38 1013.5
20260831220101 100 143 1.0 11.0 0.00 0.00 0.00 38 1013.4
20260831215540 101 273 4.0 11.0 0.00 0.00 0.00 36 1013.4
20260831215039 100 0 1.0 9.0 0.00 0.00 0.00 36 1013.4
20260831214552 100 202 2.0 10.0 0.00 0.00 0.00 37 1013.4
20260831214044 100 236 3.0 10.0 0.00 0.00 0.00 36 1013.6
20260831213540 100 242 4.0 10.0 0.00 0.00 0.00 36 1013.5
20260831213101 100 257 2.0 8.0 0.00 0.00 0.00 37 1013.4
20260831212540 101 241 4.0 8.0 0.00 0.00 0.00 37 1013.6
20260831212041 100 155 1.0 8.0 0.00 0.00 0.00 39 1013.6
20260831211609 100 237 1.0 9.0 0.00 0.00 0.00 40 1013.6
20260831211039 100 197 1.0 9.0 0.00 0.00 0.00 39 1013.7
20260831210543 100 167 2.0 9.0 0.00 0.00 0.00 39 1013.7
20260831210100 101 256 4.0 9.0 0.00 0.00 0.00 37 1013.7
20260831205543 100 236 3.0 9.0 0.00 0.00 0.00 38 1013.8
20260831205043 100 207 4.0 10.0 0.00 0.00 0.00 39 1013.8
20260831204553 100 216 3.0 10.0 0.00 0.00 0.00 38 1014.0
20260831204040 101 246 3.0 11.0 0.00 0.00 0.00 37 1013.8
20260831203541 100 290 2.0 11.0 0.00 0.00 0.00 38 1013.8
20260831203101 100 182 2.0 10.0 0.00 0.00 0.00 39 1013.9
20260831202539 101 171 3.0 10.0 0.00 0.00 0.00 39 1013.9
20260831202042 101 255 4.0 12.0 0.00 0.00 0.00 37 1014.0
20260831201602 100 194 3.0 12.0 0.00 0.00 0.00 37 1014.0
20260831201045 100 193 1.0 8.0 0.00 0.00 0.00 37 1014.0
20260831200541 100 170 0.0 7.0 0.00 0.00 0.00 40 1014.0
20260831200100 100 153 2.0 10.0 0.00 0.00 0.00 37 1014.0
20260831195542 100 145 3.0 10.0 0.00 0.00 0.00 37 1014.0
20260831195044 100 179 4.0 12.0 0.00 0.00 0.00 36 1014.2
20260831194615 100 208 4.0 12.0 0.00 0.00 0.00 36 1014.2
20260831194042 101 225 4.0 12.0 0.00 0.00 0.00 37 1014.2
20260831193544 100 178 2.0 11.0 0.00 0.00 0.00 37 1014.2
20260831193103 100 203 4.0 11.0 0.00 0.00 0.00 37 1014.1
20260831192540 99 266 4.0 10.0 0.00 0.00 0.00 38 1014.3
20260831192040 99 208 5.0 10.0 0.00 0.00 0.00 38 1014.2
20260831191559 100 273 3.0 9.0 0.00 0.00 0.00 39 1014.2
20260831191042 100 243 2.0 8.0 0.00 0.00 0.00 39 1014.3
20260831190543 99 221 2.0 9.0 0.00 0.00 0.00 40 1014.3
20260831190130 99 222 2.0 11.0 0.00 0.00 0.00 40 1014.3
20260831185540 99 261 3.0 11.0 0.00 0.00 0.00 39 1014.4
20260831185044 98 252 1.0 9.0 0.00 0.00 0.00 40 1014.2
20260831184556 98 153 4.0 10.0 0.00 0.00 0.00 39 1014.4
20260831184040 98 252 3.0 11.0 0.00 0.00 0.00 40 1014.3
20260831183539 98 182 3.0 11.0 0.00 0.00 0.00 41 1014.3
20260831183104 98 213 2.0 11.0 0.00 0.00 0.00 41 1014.4
20260831182543 98 222 4.0 11.0 0.00 0.00 0.00 41 1014.4
20260831182040 98 281 2.0 7.0 0.00 0.00 0.00 42 1014.5
20260831181600 98 242 2.0 8.0 0.00 0.00 0.00 42 1014.7
20260831181040 97 0 2.0 9.0 0.00 0.00 0.00 44 1014.5
20260831180541 96 153 1.0 10.0 0.00 0.00 0.00 44 1014.6
20260831175543 97 192 3.0 8.0 0.00 0.00 0.00 42 1014.7
20260831175043 97 220 2.0 8.0 0.00 0.00 0.00 43 1014.7
20260831174605 96 228 2.0 8.0 0.00 0.00 0.00 43 1014.7
20260831174041 96 185 1.0 7.0 0.00 0.00 0.00 43 1014.8
20260831173540 96 213 3.0 8.0 0.00 0.00 0.00 43 1014.7
20260831173102 96 196 2.0 8.0 0.00 0.00 0.00 44 1014.8
20260831172540 95 221 2.0 11.0 0.00 0.00 0.00 45 1014.9
20260831172040 95 269 2.0 11.0 0.00 0.00 0.00 45 1014.9
20260831171603 95 273 2.0 8.0 0.00 0.00 0.00 43 1015.0
20260831171043 95 234 3.0 10.0 0.00 0.00 0.00 45 1015.0
20260831170544 94 188 2.0 10.0 0.00 0.00 0.00 47 1015.1
20260831170106 93 202 3.0 11.0 0.00 0.00 0.00 47 1015.1
20260831165539 94 136 3.0 11.0 0.00 0.00 0.00 47 1015.0
20260831165043 94 233 3.0 7.0 0.00 0.00 0.00 46 1015.0
20260831164555 93 269 1.0 7.0 0.00 0.00 0.00 49 1015.2
20260831164043 92 146 2.0 9.0 0.00 0.00 0.00 50 1015.2
20260831163544 93 190 3.0 9.0 0.00 0.00 0.00 50 1015.1
20260831163100 92 192 2.0 8.0 0.00 0.00 0.00 51 1015.1
20260831162543 92 221 1.0 8.0 0.00 0.00 0.00 50 1015.2
20260831162044 91 178 3.0 8.0 0.00 0.00 0.00 51 1015.2
20260831161604 91 174 4.0 8.0 0.00 0.00 0.00 49 1015.3
20260831161048 91 149 2.0 9.0 0.00 0.00 0.00 50 1015.3
20260831160543 91 227 1.0 9.0 0.00 0.00 0.00 51 1015.4
20260831160105 90 279 4.0 9.0 0.00 0.00 0.00 50 1015.4
20260831155542 90 265 3.0 9.0 0.00 0.00 0.00 50 1015.5
20260831155043 90 197 1.0 10.0 0.00 0.00 0.00 53 1015.4
20260831154630 89 240 5.0 10.0 0.00 0.00 0.00 52 1015.5
20260831154042 89 228 4.0 9.0 0.00 0.00 0.00 52 1015.3
20260831153542 89 215 1.0 11.0 0.00 0.00 0.00 54 1015.4
20260831153104 88 204 3.0 11.0 0.00 0.00 0.00 53 1015.3
20260831152540 87 265 3.0 8.0 0.00 0.00 0.00 54 1015.3
20260831152040 86 275 3.0 10.0 0.00 0.00 0.00 56 1015.3
20260831151613 86 247 3.0 10.0 0.00 0.00 0.00 57 1015.3
20260831151040 85 250 3.0 9.0 0.00 0.00 0.00 57 1015.4
20260831150540 85 241 4.0 12.0 0.00 0.00 0.00 57 1015.5
20260831150059 84 240 2.0 12.0 0.00 0.00 0.00 59 1015.4
20260831145539 83 202 3.0 10.0 0.00 0.00 0.00 59 1015.5
20260831145041 83 0 2.0 9.0 0.00 0.00 0.00 60 1015.6
20260831144602 83 0 2.0 9.0 0.00 0.00 0.00 59 1015.4
20260831144044 83 208 3.0 9.0 0.00 0.00 0.00 58 1015.4
20260831143544 83 228 3.0 9.0 0.00 0.00 0.00 59 1015.4
20260831143108 83 224 1.0 9.0 0.00 0.00 0.00 60 1015.5
20260831142541 82 221 3.0 9.0 0.00 0.00 0.00 59 1015.7
20260831142042 82 239 2.0 7.0 0.00 0.00 0.00 59 1015.6
20260831141604 83 238 3.0 9.0 0.00 0.00 0.00 58 1015.6
20260831141040 83 219 4.0 10.0 0.00 0.00 0.00 59 1015.6
20260831140540 82 202 4.0 11.0 0.00 0.00 0.00 59 1015.7
20260831140058 82 273 3.0 11.0 0.00 0.00 0.00 59 1015.7
20260831135540 81 213 4.0 11.0 0.00 0.00 0.00 60 1015.6
20260831135040 81 205 4.0 11.0 0.00 0.00 0.00 61 1015.5
20260831134604 80 207 4.0 10.0 0.00 0.00 0.00 61 1015.4
20260831134039 80 222 4.0 11.0 0.00 0.00 0.00 62 1015.3
20260831133542 79 193 2.0 12.0 0.00 0.00 0.00 63 1015.2
20260831133102 79 196 5.0 12.0 0.00 0.00 0.00 64 1015.2
20260831132540 79 225 2.0 12.0 0.00 0.00 0.00 64 1015.3
20260831132043 78 250 4.0 13.0 0.00 0.00 0.00 64 1015.2
20260831131610 78 197 4.0 13.0 0.00 0.00 0.00 65 1015.2
20260831131040 77 260 4.0 11.0 0.00 0.00 0.00 65 1015.1
20260831130541 77 215 3.0 10.0 0.00 0.00 0.00 66 1015.2
20260831130129 77 232 5.0 10.0 0.00 0.00 0.00 67 1015.1
20260831125540 76 196 2.0 7.0 0.00 0.00 0.00 68 1015.1
20260831125045 76 225 2.0 8.0 0.00 0.00 0.00 68 1014.8
20260831124605 76 221 2.0 9.0 0.00 0.00 0.00 68 1014.9
20260831124039 76 194 3.0 9.0 0.00 0.00 0.00 67 1014.9
20260831123540 76 186 3.0 9.0 0.00 0.00 0.00 67 1015.0
20260831123103 76 231 2.0 7.0 0.00 0.00 0.00 67 1015.0
20260831122540 76 202 3.0 7.0 0.00 0.00 0.00 67 1015.1
20260831122041 76 188 0.0 5.0 0.00 0.00 0.00 68 1014.9
20260831121609 76 0 1.0 6.0 0.00 0.00 0.00 68 1014.8
20260831121040 76 186 2.0 6.0 0.00 0.00 0.00 68 1014.8
20260831120540 76 190 1.0 6.0 0.00 0.00 0.00 67 1014.7
20260831120054 76 179 2.0 5.0 0.00 0.00 0.00 68 1014.6
20260831115539 76 0 1.0 4.0 0.00 0.00 0.00 68 1014.6
20260831115040 76 0 0.0 4.0 0.00 0.00 0.00 68 1014.5
20260831114607 76 0 0.0 6.0 0.00 0.00 0.00 68 1014.5
20260831114040 76 265 1.0 6.0 0.00 0.00 0.00 67 1014.3
20260831113543 76 160 0.0 4.0 0.00 0.00 0.00 67 1014.4
20260831113103 76 242 0.0 5.0 0.00 0.00 0.00 66 1014.3
20260831112541 77 0 1.0 5.0 0.00 0.00 0.00 66 1014.2
20260831112040 77 242 1.0 7.0 0.00 0.00 0.00 65 1014.2
20260831111600 77 240 1.0 7.0 0.00 0.00 0.00 65 1014.2
20260831111040 77 198 1.0 7.0 0.00 0.00 0.00 65 1014.1
20260831110541 77 196 2.0 8.0 0.00 0.00 0.00 65 1014.0
20260831110059 77 217 1.0 8.0 0.00 0.00 0.00 65 1013.9
20260831105540 77 159 1.0 9.0 0.00 0.00 0.00 64 1013.9
20260831105045 77 226 2.0 9.0 0.00 0.00 0.00 64 1013.8
20260831104607 78 201 1.0 9.0 0.00 0.00 0.00 64 1013.8
20260831104040 78 130 2.0 7.0 0.00 0.00 0.00 64 1014.0
20260831103543 78 0 1.0 7.0 0.00 0.00 0.00 63 1014.1
20260831103104 78 0 1.0 7.0 0.00 0.00 0.00 63 1014.1
20260831102540 78 249 1.0 6.0 0.00 0.00 0.00 63 1013.9
20260831102040 78 216 0.0 6.0 0.00 0.00 0.00 63 1013.9
20260831101608 79 0 0.0 6.0 0.00 0.00 0.00 62 1013.8
20260831101040 79 217 0.0 3.0 0.00 0.00 0.00 62 1013.8
20260831100539 79 0 0.0 3.0 0.00 0.00 0.00 62 1013.7
20260831100108 79 0 0.0 5.0 0.00 0.00 0.00 61 1013.6
20260831095541 79 0 0.0 5.0 0.00 0.00 0.00 61 1013.6
20260831095040 80 155 0.0 7.0 0.00 0.00 0.00 60 1013.5
20260831094632 80 241 1.0 7.0 0.00 0.00 0.00 60 1013.3
20260831094046 80 194 0.0 7.0 0.00 0.00 0.00 59 1013.2
20260831093545 80 248 1.0 7.0 0.00 0.00 0.00 58 1013.3
20260831093104 81 190 0.0 7.0 0.00 0.00 0.00 58 1013.0
20260831092545 81 160 2.0 10.0 0.00 0.00 0.00 57 1012.8
20260831092044 81 175 3.0 14.0 0.00 0.00 0.00 57 1012.7
20260831091615 81 236 2.0 14.0 0.00 0.00 0.00 56 1012.6
20260831091044 82 241 2.0 14.0 0.00 0.00 0.00 56 1012.6
20260831090546 82 206 3.0 11.0 0.00 0.00 0.00 56 1012.5
20260831090054 82 264 3.0 11.0 0.00 0.00 0.00 56 1012.3
20260831085544 82 190 2.0 10.0 0.00 0.00 0.00 55 1012.4
20260831085044 83 200 3.0 9.0 0.00 0.00 0.00 54 1012.3
20260831084616 83 167 4.0 13.0 0.00 0.00 0.00 54 1012.3
20260831084043 83 184 4.0 13.0 0.00 0.00 0.00 54 1012.2
20260831083543 83 241 2.0 12.0 0.00 0.00 0.00 54 1012.3
20260831083104 83 223 4.0 12.0 0.00 0.00 0.00 53 1012.3
20260831082544 83 214 4.0 11.0 0.00 0.00 0.00 53 1012.3
20260831082044 83 216 5.0 11.0 0.00 0.00 0.00 53 1012.3
20260831081605 83 238 3.0 11.0 0.00 0.00 0.00 53 1012.1
20260831081044 84 165 4.0 11.0 0.00 0.00 0.00 52 1012.2
20260831080544 84 199 3.0 12.0 0.00 0.00 0.00 52 1012.2
20260831080103 84 196 5.0 12.0 0.00 0.00 0.00 52 1012.2
20260831075543 84 224 5.0 12.0 0.00 0.00 0.00 52 1012.2
20260831075047 84 232 4.0 12.0 0.00 0.00 0.00 52 1012.2
20260831074605 84 228 4.0 12.0 0.00 0.00 0.00 52 1012.2
20260831074043 84 232 4.0 11.0 0.00 0.00 0.00 52 1012.3
20260831073544 84 234 3.0 11.0 0.00 0.00 0.00 52 1012.4
20260831073104 84 196 4.0 11.0 0.00 0.00 0.00 52 1012.4
20260831072546 84 252 3.0 13.0 0.00 0.00 0.00 52 1012.5
20260831072043 84 231 4.0 13.0 0.00 0.00 0.00 52 1012.4
20260831071615 84 226 4.0 10.0 0.00 0.00 0.00 52 1012.6
20260831071047 84 223 4.0 11.0 0.00 0.00 0.00 52 1012.5
20260831070544 84 226 4.0 12.0 0.00 0.00 0.00 52 1012.5
20260831070107 84 220 4.0 13.0 0.00 0.00 0.00 52 1012.5
20260831065544 84 238 5.0 13.0 0.00 0.00 0.00 52 1012.6
20260831065044 84 202 5.0 13.0 0.00 0.00 0.00 51 1012.5
20260831064613 85 231 4.0 12.0 0.00 0.00 0.00 51 1012.5
20260831064044 85 230 4.0 13.0 0.00 0.00 0.00 51 1012.4
20260831063544 85 155 4.0 13.0 0.00 0.00 0.00 51 1012.5
20260831063117 85 169 3.0 12.0 0.00 0.00 0.00 51 1012.5